Location: Home
(42.5358°N, 72.7383°W)
Time: 20:53:06
(UTC-04:00)

Vanguard 2 Rocket - Visible Passes

Search period start: 19 June 2025 00:00
Search period end: 29 June 2025 00:00
Orbit: 555 x 3292 km, 32.9° (Epoch: 19 June)

Date Brightness Start Highest point End Pass type
(mag) Time Alt. Az. Time Alt. Az. Time Alt. Az.
19 Jun 10.7 22:42:29 10° WSW 22:52:06 17° SW 23:02:33 10° S visible
20 Jun 10.5 21:35:09 10° W 21:46:38 24° SW 22:00:18 10° S visible
21 Jun 10.9 22:53:36 10° SW 22:56:06 10° SW 22:58:40 10° SW visible
22 Jun 10.7 21:41:59 10° WSW 21:50:44 17° SW 22:00:51 10° S visible
24 Jun 10.9 21:53:47 10° SW 21:54:59 10° SW 21:56:11 10° SW visible
